DW7888 Weather Reports


time (UTC)temp
C
wind
direction
speed
KPH
gust
KPH
rain 1hr
cm
rain 24hr
cm
rain mn
cm
humidity
%
barometer
mb
20260503203507 16 27 4.8 14.5 0.00 0.00 0.00 33 1015.8
20260503203016 16 311 0.0 20.9 0.00 0.00 0.00 33 1015.7
20260503202509 16 360 6.4 20.9 0.00 0.00 0.00 31 1016.0
20260503202009 17 338 8.0 19.3 0.00 0.00 0.00 30 1016.0
20260503201527 17 291 1.6 16.1 0.00 0.00 0.00 31 1016.0
20260503201008 16 190 1.6 14.5 0.00 0.00 0.00 33 1016.1
20260503200509 16 360 1.6 14.5 0.00 0.00 0.00 34 1016.0
20260503200027 16 330 6.4 14.5 0.00 0.00 0.00 34 1016.2
20260503195507 16 355 4.8 17.7 0.00 0.00 0.00 33 1016.2
20260503195007 16 28 4.8 17.7 0.00 0.00 0.00 33 1016.4
20260503194527 16 229 0.0 14.5 0.00 0.00 0.00 36 1016.4
20260503194007 16 339 3.2 14.5 0.00 0.00 0.00 34 1016.5
20260503193506 16 277 1.6 9.7 0.00 0.00 0.00 36 1016.4
20260503193020 16 118 3.2 9.7 0.00 0.00 0.00 34 1016.5
20260503192509 16 325 3.2 16.1 0.00 0.00 0.00 35 1016.7
20260503192015 16 341 6.4 16.1 0.00 0.00 0.00 33 1016.6
20260503191522 16 355 3.2 16.1 0.00 0.00 0.00 38 1016.7
20260503191009 15 348 4.8 16.1 0.00 0.00 0.00 35 1016.8
20260503190509 16 27 3.2 16.1 0.00 0.00 0.00 34 1017.1
20260503190023 15 341 3.2 12.9 0.00 0.00 0.00 35 1017.2
20260503185507 15 340 3.2 12.9 0.00 0.00 0.00 35 1017.2
20260503185009 16 355 3.2 16.1 0.00 0.00 0.00 36 1017.3
20260503184526 16 215 3.2 16.1 0.00 0.00 0.00 37 1017.4
20260503184006 15 24 4.8 16.1 0.00 0.00 0.00 35 1017.5
20260503183515 15 277 6.4 12.9 0.00 0.00 0.00 38 1017.3
20260503183027 16 355 1.6 9.7 0.00 0.00 0.00 39 1017.4
20260503182509 16 24 1.6 8.0 0.00 0.00 0.00 36 1017.5
20260503182009 16 315 3.2 9.7 0.00 0.00 0.00 38 1017.4
20260503181535 15 34 0.0 9.7 0.00 0.00 0.00 37 1017.6
20260503181008 15 334 3.2 14.5 0.00 0.00 0.00 37 1017.7
20260503180508 15 26 3.2 14.5 0.00 0.00 0.00 38 1017.6
20260503180024 15 343 6.4 14.5 0.00 0.00 0.00 36 1017.7
20260503175507 15 11 6.4 16.1 0.00 0.00 0.00 37 1017.7
20260503175009 15 86 4.8 16.1 0.00 0.00 0.00 41 1017.7
20260503174504 14 345 3.2 14.5 0.00 0.00 0.00 36 1017.7
20260503174003 15 309 4.8 14.5 0.00 0.00 0.00 37 1017.8
20260503173502 15 340 0.0 12.9 0.00 0.00 0.00 41 1017.7
20260503173013 15 346 4.8 12.9 0.00 0.00 0.00 43 1017.7
20260503172506 14 40 3.2 12.9 0.00 0.00 0.00 40 1017.8
20260503172006 14 9 3.2 12.9 0.00 0.00 0.00 40 1017.9
20260503171504 14 5 4.8 12.9 0.00 0.00 0.00 43 1017.9
20260503171004 14 10 1.6 12.9 0.00 0.00 0.00 45 1017.9
20260503170508 14 5 0.0 14.5 0.00 0.00 0.00 42 1018.1
20260503151010 12 35 1.6 16.1 0.00 0.00 0.00 42 1018.8
20260503150507 12 329 6.4 17.7 0.00 0.00 0.00 42 1018.8
20260503131010 9 348 1.6 17.7 0.00 0.00 0.00 56 1018.8
20260503130503 9 324 1.6 17.7 0.00 0.00 0.00 58 1018.8
20260503110508 3 19 0.0 0.0 0.00 0.00 0.00 87 1017.8
20260503090508 7 300 0.0 0.0 0.00 0.00 0.00 67 1015.7
20260503081527 8 24 1.6 6.4 0.00 0.00 0.00 60 1015.3
20260503081007 8 302 0.0 9.7 0.00 0.00 0.00 60 1015.3
20260503080511 8 294 1.6 9.7 0.00 0.00 0.00 60 1015.3
20260503072509 9 312 1.6 4.8 0.00 0.00 0.00 59 1015.0
20260503072009 9 340 1.6 6.4 0.00 0.00 0.00 59 1014.9
20260503071535 10 38 0.0 6.4 0.00 0.00 0.00 59 1014.6
20260503071008 10 339 1.6 6.4 0.00 0.00 0.00 59 1014.6
20260503070508 10 328 0.0 11.3 0.00 0.00 0.00 59 1014.6
20260503055006 10 52 0.0 3.2 0.00 0.00 0.00 61 1014.0
20260503054504 10 298 0.0 4.8 0.00 0.00 0.00 61 1014.1
20260503054003 10 311 0.0 4.8 0.00 0.00 0.00 61 1014.0
20260503053505 10 329 1.6 4.8 0.00 0.00 0.00 61 1014.0
20260503053002 10 51 0.0 4.8 0.00 0.00 0.00 62 1013.9
20260503052503 10 334 0.0 3.2 0.00 0.00 0.00 63 1014.0
20260503052005 10 336 1.6 4.8 0.00 0.00 0.00 63 1014.0
20260503051503 10 355 0.0 6.4 0.00 0.00 0.00 65 1014.0
20260503051003 10 69 0.0 6.4 0.00 0.00 0.00 68 1014.0
20260503050506 10 73 0.0 4.8 0.00 0.00 0.00 72 1013.9
20260503050003 9 14 0.0 4.8 0.00 0.00 0.00 76 1013.9
20260503045505 9 84 0.0 0.0 0.00 0.00 0.00 79 1014.0
20260503045010 9 84 0.0 0.0 0.00 0.00 0.00 80 1014.0
20260503044502 9 84 0.0 0.0 0.00 0.00 0.00 80 1014.0
20260503044005 9 84 0.0 1.6 0.00 0.00 0.00 80 1013.9
20260503043505 9 84 0.0 1.6 0.00 0.00 0.00 81 1013.9
20260503043003 9 84 0.0 0.0 0.00 0.00 0.00 81 1013.8
20260503042502 9 84 0.0 0.0 0.00 0.00 0.00 81 1013.7
20260503042008 10 84 0.0 1.6 0.00 0.00 0.00 81 1013.7
20260503041504 10 84 0.0 1.6 0.00 0.00 0.00 81 1013.7
20260503041003 10 84 0.0 0.0 0.00 0.00 0.00 81 1013.7
20260503040514 10 84 0.0 0.0 0.00 0.00 0.00 81 1013.8
20260503040006 10 84 0.0 0.0 0.00 0.00 0.00 81 1013.8
20260503035503 10 84 0.0 0.0 0.00 0.00 0.00 81 1013.8
20260503035006 10 84 0.0 0.0 0.00 0.00 0.00 80 1013.9
20260503034503 10 84 0.0 0.0 0.00 0.00 0.00 80 1013.9
20260503034007 10 84 0.0 0.0 0.00 0.00 0.00 79 1013.9
20260503033507 10 84 0.0 0.0 0.00 0.00 0.00 79 1013.9
20260503033002 10 84 0.0 0.0 0.00 0.00 0.00 79 1013.9
20260503032505 10 84 0.0 0.0 0.00 0.00 0.00 78 1013.9
20260503032012 10 84 0.0 0.0 0.00 0.00 0.00 79 1013.8
20260503031504 10 84 0.0 0.0 0.00 0.00 0.00 79 1013.9
20260503031010 10 84 0.0 0.0 0.00 0.00 0.00 79 1013.9
20260503030508 10 84 0.0 0.0 0.00 0.00 0.00 79 1013.9
20260503030004 10 84 0.0 0.0 0.00 0.00 0.00 78 1013.9
20260503025510 10 84 0.0 0.0 0.00 0.00 0.00 78 1013.9
20260503025010 10 84 0.0 0.0 0.00 0.00 0.00 77 1013.9
20260503024504 10 84 0.0 0.0 0.00 0.00 0.00 77 1013.9
20260503024006 10 84 0.0 0.0 0.00 0.00 0.00 77 1013.8
20260503023509 10 84 0.0 0.0 0.00 0.00 0.00 76 1013.9
20260503023005 10 84 0.0 0.0 0.00 0.00 0.00 75 1013.9
20260503022506 10 84 0.0 0.0 0.00 0.00 0.00 75 1013.9
20260503022013 10 84 0.0 0.0 0.00 0.00 0.00 74 1013.8
20260503021516 10 84 0.0 0.0 0.00 0.00 0.00 73 1013.8
20260503021011 10 84 0.0 0.0 0.00 0.00 0.00 73 1013.7
20260503020512 10 84 0.0 0.0 0.00 0.00 0.00 72 1013.6
20260503020007 10 84 0.0 0.0 0.00 0.00 0.00 73 1013.6
20260503015509 10 84 0.0 0.0 0.00 0.00 0.00 73 1013.6
20260503015012 11 84 0.0 0.0 0.00 0.00 0.00 73 1013.6
20260503014506 11 84 0.0 0.0 0.00 0.00 0.00 72 1013.6
20260503014006 11 84 0.0 0.0 0.00 0.00 0.00 72 1013.6
20260503013510 11 84 0.0 0.0 0.00 0.00 0.00 72 1013.6
20260503013008 11 84 0.0 0.0 0.00 0.00 0.00 73 1013.5
20260503012506 11 84 0.0 0.0 0.00 0.00 0.00 73 1013.4
20260503012015 11 84 0.0 0.0 0.00 0.00 0.00 73 1013.3
20260503011510 11 84 0.0 0.0 0.00 0.00 0.00 72 1013.4
20260503011007 11 84 0.0 0.0 0.00 0.00 0.00 72 1013.3
20260503010512 11 84 0.0 0.0 0.00 0.00 0.00 71 1013.3
20260503010012 11 84 0.0 0.0 0.00 0.00 0.00 71 1013.2
20260503005509 11 84 0.0 0.0 0.00 0.00 0.00 71 1013.2
20260503005012 11 84 0.0 0.0 0.00 0.00 0.00 70 1013.1
20260503004513 11 84 0.0 0.0 0.00 0.00 0.00 70 1013.0
20260503004008 11 84 0.0 0.0 0.00 0.00 0.00 69 1012.9
20260503003513 11 84 0.0 0.0 0.00 0.00 0.00 69 1012.8
20260503003026 12 84 0.0 0.0 0.00 0.00 0.00 68 1012.7
20260503002506 12 84 0.0 0.0 0.00 0.00 0.00 67 1012.7
20260503002004 12 84 0.0 0.0 0.00 0.00 0.00 67 1012.7
20260503001512 12 84 0.0 0.0 0.00 0.00 0.00 66 1012.6
20260503001006 12 84 0.0 0.0 0.00 0.00 0.00 65 1012.6
20260503000503 12 84 0.0 0.0 0.00 0.00 0.00 63 1012.6
20260503000024 12 84 0.0 0.0 0.00 0.00 0.00 61 1012.5
20260502235507 13 84 0.0 0.0 0.00 0.00 0.00 56 1012.3
20260502235003 13 84 0.0 0.0 0.00 0.00 0.00 56 1012.2
20260502234530 13 84 0.0 1.6 0.00 0.00 0.00 55 1012.0
20260502234009 13 84 0.0 3.2 0.00 0.00 0.00 54 1012.0
20260502233504 13 84 0.0 3.2 0.00 0.00 0.00 53 1012.0
20260502233015 13 321 0.0 0.0 0.00 0.00 0.00 54 1011.9
20260502232507 13 321 0.0 0.0 0.00 0.00 0.00 54 1011.8
20260502232006 13 320 0.0 0.0 0.00 0.00 0.00 53 1011.8
20260502231526 13 341 0.0 0.0 0.00 0.00 0.00 53 1011.7
20260502231013 14 35 0.0 0.0 0.00 0.00 0.00 51 1011.6
20260502230504 14 28 0.0 0.0 0.00 0.00 0.00 50 1011.6
20260502230022 14 28 0.0 0.0 0.00 0.00 0.00 50 1011.6
20260502225508 14 23 0.0 0.0 0.00 0.00 0.00 50 1011.6
20260502225004 14 5 0.0 0.0 0.00 0.00 0.00 51 1011.5
20260502224517 14 360 0.0 0.0 0.00 0.00 0.00 48 1011.4
20260502224012 15 329 0.0 3.2 0.00 0.00 0.00 48 1011.5
20260502223503 15 320 0.0 3.2 0.00 0.00 0.00 50 1011.4
20260502223034 15 337 0.0 3.2 0.00 0.00 0.00 47 1011.4
20260502222511 15 61 0.0 3.2 0.00 0.00 0.00 49 1011.5
20260502222010 15 41 0.0 3.2 0.00 0.00 0.00 49 1011.5
20260502221522 15 73 0.0 1.6 0.00 0.00 0.00 50 1011.4
20260502221015 15 26 0.0 1.6 0.00 0.00 0.00 46 1011.5
20260502220508 15 49 0.0 3.2 0.00 0.00 0.00 46 1011.6
20260502220022 15 333 0.0 6.4 0.00 0.00 0.00 46 1011.6
20260502215510 15 355 0.0 6.4 0.00 0.00 0.00 47 1011.7
20260502215007 15 69 0.0 6.4 0.00 0.00 0.00 49 1011.8
20260502214524 15 302 0.0 6.4 0.00 0.00 0.00 49 1011.7
20260502214016 15 314 1.6 9.7 0.00 0.00 0.00 49 1011.7
20260502213507 15 308 0.0 9.7 0.00 0.00 0.00 49 1011.7
20260502213023 15 303 1.6 8.0 0.00 0.00 0.00 47 1011.8
20260502212507 15 24 0.0 4.8 0.00 0.00 0.00 48 1011.7
20260502212011 15 334 0.0 4.8 0.00 0.00 0.00 49 1011.7
20260502211532 15 33 0.0 4.8 0.00 0.00 0.00 49 1011.6
20260502211010 14 323 0.0 6.4 0.00 0.00 0.00 48 1011.6
20260502210513 14 9 1.6 6.4 0.00 0.00 0.00 48 1011.5
20260502210021 14 352 0.0 6.4 0.00 0.00 0.00 48 1011.6
20260502205517 14 292 0.0 6.4 0.00 0.00 0.00 48 1011.6
20260502205009 15 333 1.6 6.4 0.00 0.00 0.00 48 1011.5
20260502204504 15 61 0.0 6.4 0.00 0.00 0.00 46 1011.5
20260502204007 15 53 0.0 4.8 0.00 0.00 0.00 49 1011.5